{"data":{"norad_id":67832,"intl_designator":"2026-033M","name":"STARLINK-36662","alt_names":[],"object_type":"PAYLOAD","status":"ACTIVE","operator":null,"country":"US","launch_date":"2026-02-16","launch_site_code":"AFETR","launch_vehicle":null,"mission":null,"orbit_class":"UNKNOWN","rcs_meters":null,"size_class":null,"mass_kg":null,"dimensions":null,"purposes":["comms"],"wikipedia_slug":null,"has_3d_model":false,"image_url":null,"decayed_at":null,"tle_current":{"epoch":"2026-05-24T14:29:22.041312Z","epoch_age_seconds":119823,"freshness":"FRESH","line1":"1 67832U 26033M   26144.60372733  .00013519  00000+0  49979-3 0  9997","line2":"2 67832  43.0016 191.3054 0001464 271.6895  88.3789 15.27586743 16365","mean_motion":15.27586743,"eccentricity":0.0001464,"inclination_deg":43.0016,"raan_deg":191.3054,"arg_perigee_deg":271.6895,"mean_anomaly_deg":88.3789,"bstar":0.00049979,"rev_number":1636,"period_min":94.266332605899,"perigee_km":482.02443045763,"apogee_km":484.03337983466,"semimajor_km":6861.1659051461,"source":"CELESTRAK","updated_at":"2026-05-25T13:38:21.699710Z"}}}